Tracking 35334 objects as of 13-Sep-2026
HD Live streaming from Space Station
objects crossing your sky now

ONEWEB-0238

Track ONEWEB-0238 now!
10-day predictions
ONEWEB-0238 is classified as:


NORAD ID: 48784
Int'l Code: 2021-045T
Launch date: May 28, 2021
Source: United Kingdom (UK)
Launch site: VOSTOCHNY COSMODROME (VOSTO)
Your satellite tracking list
Your tracking list is empty




NASA's NSSDC Master Catalog

Two Line Element Set (TLE):
1 48784U 21045T   26256.00793064 -.00000007  00000-0 -53075-4 0  9996
2 48784  87.8983 241.6718 0001604  88.3010 271.8305 13.15547729255929
Source of the keplerian elements: AFSPC